Location: Monroe
(41.9160°N, 83.3980°W)
Time: 06:15:18
(UTC-04:00)

ISS - All Passes

Search period start: 30 June 2016 00:00
Search period end: 10 July 2016 00:00
Orbit: 402 x 403 km, 51.6° (Epoch: 30 June)

Date Brightness Start Highest point End Pass type
(mag) Time Alt. Az. Time Alt. Az. Time Alt. Az.
30 Jun - 08:25:02 10° SSW 08:27:49 26° SE 08:30:35 10° ENE daylight
30 Jun - 10:01:02 10° W 10:04:08 40° NNW 10:07:15 10° NE daylight
30 Jun - 11:39:06 10° NW 11:41:14 16° N 11:43:23 10° NNE daylight
30 Jun - 13:16:16 10° NNW 13:18:37 18° NNE 13:20:57 10° ENE daylight
30 Jun - 14:52:20 10° NW 14:55:35 58° NNE 14:58:48 10° ESE daylight
30 Jun - 16:29:32 10° W 16:31:43 17° SW 16:33:54 10° S daylight
01 Jul - 07:33:30 10° SSE 07:35:14 14° SE 07:36:59 10° E daylight
01 Jul - 09:08:04 10° WSW 09:11:18 70° NW 09:14:34 10° NE daylight
01 Jul - 10:45:46 10° WNW 10:48:12 19° NNW 10:50:38 10° NE daylight
01 Jul - 12:23:30 10° NNW 12:25:34 16° N 12:27:38 10° NE daylight
01 Jul - 13:59:40 10° NW 14:02:43 35° NNE 14:05:45 10° E daylight
01 Jul - 15:36:10 10° WNW 15:39:08 31° SW 15:42:04 10° SSE daylight
02 Jul - 08:15:19 10° SW 08:18:32 61° SE 08:21:46 10° ENE daylight
02 Jul - 09:52:27 10° WNW 09:55:12 24° NNW 09:57:57 10° NE daylight
02 Jul - 11:30:31 10° NW 11:32:29 15° N 11:34:28 10° NE daylight
02 Jul - 13:07:01 10° NW 13:09:46 24° NNE 13:12:31 10° ENE daylight
02 Jul - 14:43:12 10° WNW 14:46:27 62° SW 14:49:40 10° SE daylight
03 Jul - 07:22:56 10° SSW 07:25:51 31° SE 07:28:47 10° ENE daylight
03 Jul - 08:59:13 10° W 09:02:15 35° NNW 09:05:18 10° NE daylight
03 Jul - 10:37:19 10° NW 10:39:24 16° N 10:41:29 10° NNE daylight
03 Jul - 12:14:21 10° NNW 12:16:46 19° NNE 12:19:12 10° ENE daylight
03 Jul - 13:50:24 10° NW 13:53:41 69° NE 13:56:55 10° ESE daylight
03 Jul - 15:27:57 10° W 15:29:44 14° SW 15:31:30 10° SSW daylight
04 Jul - 06:31:05 10° S 06:33:14 17° SE 06:35:24 10° E daylight
04 Jul - 08:06:09 10° WSW 08:09:23 58° NNW 08:12:37 10° NE daylight
04 Jul - 09:44:00 10° WNW 09:46:20 18° NNW 09:48:40 10° NNE daylight
04 Jul - 11:21:35 10° NNW 11:23:42 16° N 11:25:51 10° NE daylight
04 Jul - 12:57:41 10° NW 13:00:49 40° NNE 13:03:55 10° E daylight
04 Jul - 14:34:22 10° WNW 14:37:08 26° SW 14:39:55 10° SSE daylight
05 Jul - 07:13:19 10° SW 07:16:35 75° SE 07:19:51 10° ENE daylight
05 Jul - 08:50:39 10° WNW 08:53:18 22° NNW 08:55:58 10° NE daylight
05 Jul - 10:28:38 10° NW 10:30:37 15° N 10:32:36 10° NE daylight
05 Jul - 12:05:01 10° NW 12:07:52 27° NNE 12:10:43 10° E daylight
05 Jul - 13:41:17 10° WNW 13:44:28 51° SW 13:47:38 10° SE daylight
06 Jul - 06:20:48 10° SSW 06:23:51 37° SE 06:26:54 10° ENE daylight
06 Jul - 07:57:21 10° W 08:00:19 31° NNW 08:03:17 10° NE daylight
06 Jul - 09:35:29 10° NW 09:37:31 15° N 09:39:33 10° NE daylight
06 Jul - 11:12:21 10° NW 11:14:52 20° NNE 11:17:23 10° ENE daylight
06 Jul - 12:48:25 10° NW 12:51:42 83° NE 12:54:57 10° ESE daylight
06 Jul - 14:26:32 10° WSW 14:27:41 11° SW 14:28:49 10° SSW daylight
07 Jul - 05:28:44 10° S 05:31:11 20° SE 05:33:39 10° E visible
07 Jul - 07:04:13 10° WSW 07:07:24 49° NNW 07:10:36 10° NE daylight
07 Jul - 08:42:10 10° NW 08:44:25 17° N 08:46:40 10° NNE daylight
07 Jul - 10:19:35 10° NNW 10:21:48 17° N 10:24:00 10° NE daylight
07 Jul - 11:55:40 10° NW 11:58:51 46° NNE 12:02:00 10° ESE daylight
07 Jul - 13:32:30 10° W 13:35:05 22° SW 13:37:40 10° S daylight
08 Jul - 04:38:01 10° SE 04:38:36 10° SE 04:39:12 10° ESE visible
08 Jul - 06:11:18 10° SW 06:14:33 90° NW 06:17:49 10° NE daylight
08 Jul - 07:48:47 10° WNW 07:51:21 21° NNW 07:53:55 10° NE daylight
08 Jul - 09:26:41 10° NW 09:28:41 15° N 09:30:42 10° NE daylight
08 Jul - 11:02:58 10° NW 11:05:54 29° NNE 11:08:49 10° E daylight
08 Jul - 12:39:18 10° WNW 12:42:25 41° SW 12:45:30 10° SSE daylight
09 Jul - 05:18:38 10° SW 05:21:47 46° SE 05:24:55 10° ENE visible
09 Jul - 06:55:27 10° W 06:58:20 28° NNW 07:01:13 10° NE daylight
09 Jul - 08:33:34 10° NW 08:35:34 15° N 08:37:33 10° NE daylight
09 Jul - 10:10:16 10° NW 10:12:54 22° NNE 10:15:30 10° ENE daylight
09 Jul - 11:46:23 10° WNW 11:49:39 83° SSW 11:52:54 10° SE daylight
